CAPE
0 2 1 2 0 0 0 0 0 0 0 0 0 0 0 0 0 0 0 0 0 0 0 0 0 0 0 0 0 0 0 0 0 0 0 0 0 0 3 0 0 30 0 0 3 5 0
0 0 1 1 2 0 0 0 0 0 0 0 0 0 0 0 0 0 0 0 0 0 0 0 0 0 0 0 0 0 0 0 0 0 0 0 0 0 1 0 0 3 18 3 16 0 0
0 0 3 2 1 0 0 0 0 0 0 0 0 0 0 0 0 0 0 0 0 0 0 0 0 0 0 0 0 0 0 0 0 0 0 0 0 0 0 0 2 0 0 7 0 2 0
1 0 0 2 2 0 0 0 0 0 0 0 0 0 0 0 0 0 0 0 0 0 0 0 0 0 0 0 0 0 0 0 0 0 0 0 0 0 0 0 0 0 12 4 11 0 0
1 2 2 3 0 0 0 0 0 0 0 0 0 0 0 0 0 0 0 0 0 0 0 0 0 0 0 0 0 0 0 0 0 0 0 0 0 0 0 0 13 1 13 4 13 0 0
0 1 2 0 0 0 0 0 0 0 0 0 0 0 0 0 0 0 0 0 0 0 0 0 0 0 0 0 0 0 0 0 0 0 0 0 0 0 0 0 1 0 1 15 17 5 1
2 3 2 0 0 0 0 0 0 0 0 0 0 0 0 0 0 0 0 0 0 0 0 0 0 0 0 0 0 0 0 0 0 0 0 0 0 0 0 0 0 18 6 0 13 31 48
3 2 2 0 1 0 0 0 0 0 0 0 0 0 0 0 0 0 0 0 0 0 0 0 0 0 0 0 0 0 0 0 0 0 0 0 0 0 0 0 0 0 1 1 7 23 56
1 1 0 0 1 0 0 0 0 0 0 0 0 0 0 0 0 0 0 0 0 0 0 0 0 0 0 0 0 0 0 0 0 0 0 0 0 0 0 0 0 0 0 0 6 23 4
0 0 0 0 1 0 0 0 0 0 0 0 0 0 0 0 0 0 0 0 0 0 0 0 0 0 0 0 0 0 0 0 0 0 0 0 0 0 0 0 0 0 0 0 0 6 5
0 0 0 0 0 0 0 0 0 0 0 0 0 0 0 0 0 0 0 0 0 0 0 0 0 0 0 0 0 0 0 0 0 0 0 0 0 0 0 0 0 0 0 0 0 0 0
0 0 0 0 0 0 0 0 0 0 0 0 0 0 0 0 0 0 0 0 0 0 0 0 0 0 0 0 0 0 0 0 0 0 0 0 0 0 0 0 0 0 0 0 0 0 0
1 0 0 0 0 0 0 0 0 0 0 0 0 0 0 0 0 0 0 0 0 0 0 0 0 0 0 0 0 0 0 0 0 0 0 0 0 0 0 0 0 0 0 0 0 0 0
1 1 0 0 0 0 0 0 0 0 0 0 0 0 0 0 0 0 0 0 0 0 0 0 0 0 0 0 0 0 0 0 0 0 0 0 0 0 0 0 0 0 0 0 0 0 1
7 4 1 1 1 0 0 0 0 0 0 0 0 0 0 0 0 0 0 0 0 0 0 0 1 0 0 0 0 0 0 0 0 0 0 0 0 0 0 0 0 0 0 0 0 0 0
9 5 6 1 8 2 0 0 0 0 0 0 0 0 0 0 0 0 0 0 0 0 0 9 1 1 0 0 0 0 0 0 0 0 0 0 0 0 0 0 0 0 0 0 0 0 0
6 4 0 0 1 0 0 0 0 0 0 0 0 0 0 0 0 0 0 0 0 0 0 2 15 8 1 0 0 0 0 0 0 0 0 0 0 0 0 0 0 0 0 0 0 0 0
7 5 0 4 0 0 0 0 0 0 0 0 0 0 0 0 0 0 0 0 0 0 0 7 4 0 22 37 0 0 0 0 0 0 0 0 0 0 0 0 0 0 0 1 0 2 0
0 0 2 4 5 1 3 0 0 0 0 0 0 0 0 0 0 0 0 0 0 0 1 12 0 0 0 10 11 0 0 0 0 0 0 0 0 0 0 0 0 0 1 0 0 0 0
5 5 7 3 2 1 1 0 0 0 0 0 0 0 0 0 0 0 0 0 0 0 0 29 11 2 0 6 12 6 1 0 0 0 0 0 0 0 0 0 0 0 0 0 0 11 2
8 1 3 6 5 2 0 0 0 0 0 0 0 0 0 1 0 0 0 0 70 1 18 33 17 0 52 68 34 6 2 0 0 1 0 0 0 0 0 0 1 4 0 0 0 0 0
9 2 0 1 7 4 0 0 0 0 0 0 0 0 0 0 0 0 0 0 92 75 54 47 24 5 11 44 225 338 188 134 3 3 0 0 0 0 0 0 0 0 0 25 0 0 0
12 7 0 0 1 3 2 0 0 0 0 0 0 0 0 0 0 0 3 35 104 90 76 11 37 74 74 195 171 192 89 135 148 46 2 14 0 0 0 0 0 0 1 2 21 18 0
13 13 7 0 0 0 1 1 0 1 0 0 0 0 0 0 0 3 1 2 42 67 2 19 5 17 166 17 64 155 82 108 140 87 82 27 31 1 0 10 46 0 36 30 39 29 1
17 16 11 10 1 0 0 1 2 4 0 0 0 0 0 0 0 0 0 0 0 0 0 0 38 8 1 6 78 59 159 48 49 104 93 7 206 36 30 0 23 70 126 136 29 48 93
18 14 15 14 9 0 0 0 2 5 0 0 0 0 0 0 0 0 0 0 0 0 0 0 0 0 0 0 47 83 93 74 60 71 113 0 4 6 38 120 15 65 167 87 45 0 52
19 20 19 17 15 7 0 0 3 3 2 1 0 0 0 0 0 0 0 0 0 0 0 4 0 0 0 4 5 14 26 58 17 49 53 0 17 35 73 41 0 54 87 20 0 0 62
23 24 16 15 17 9 2 0 1 4 4 2 0 0 0 0 0 0 0 0 0 0 0 0 0 0 3 24 5 20 53 89 153 185 49 72 134 24 0 14 1 182 242 37 269 18 83
30 22 18 18 12 22 11 0 0 2 2 0 0 0 0 0 0 0 0 0 0 0 0 0 0 120 2 62 100 61 73 64 101 6 29 136 91 1 237 250 148 282 333 107 92 85 4
CIN
0 0 0 0 0 0 0 0 0 0 0 0 0 0 0 0 0 0 0 0 0 0 0 0 0 0 0 0 0 0 0 0 0 0 0 0 0 0 -14 0 0 -7 0 0 -11 -21 0
0 0 0 0 0 0 0 0 0 0 0 0 0 0 0 0 0 0 0 0 0 0 0 0 0 0 0 0 0 0 0 0 0 0 0 0 0 0 -8 -3 0 -5 -3 -3 -5 0 0
0 0 0 0 0 0 0 0 0 0 0 0 0 0 0 0 0 0 0 0 0 0 0 0 0 0 0 0 0 0 0 0 0 0 0 0 0 0 0 0 -6 0 -1 -6 0 -5 0
0 0 0 0 0 0 0 0 0 0 0 0 0 0 0 0 0 0 0 0 0 0 0 0 0 0 0 0 0 0 0 0 0 0 0 0 0 0 0 0 0 -1 -6 -3 -9 0 0
0 0 0 0 0 0 0 0 0 0 0 0 0 0 0 0 0 0 0 0 0 0 0 0 0 0 0 0 0 0 0 0 0 0 0 0 0 0 0 0 -3 -5 -6 -13 -18 0 0
0 0 0 0 0 0 0 0 0 0 0 0 0 0 0 0 0 0 0 0 0 0 0 0 0 0 0 0 0 0 0 0 0 0 0 0 0 0 0 0 -4 0 -24 -15 -14 -63 -16
-1 0 0 0 0 0 0 0 0 0 0 0 0 0 0 0 0 0 0 0 0 0 0 0 0 0 0 0 0 0 0 0 0 0 0 0 0 0 0 0 0 -5 -11 0 -31 -40 -83
-2 -1 -1 0 -1 0 0 0 0 0 0 0 0 0 0 0 0 0 0 0 0 0 0 0 0 0 0 0 0 0 0 0 0 0 0 0 0 0 0 0 0 0 -3 -2 -12 -1 -14
-5 -3 0 0 -1 0 0 0 0 0 0 0 0 0 0 0 0 0 0 0 0 0 0 0 0 0 0 0 0 0 0 0 0 0 0 0 0 0 0 0 0 0 0 0 -14 -4 -17
-2 0 0 0 -3 0 0 0 0 0 0 0 0 0 0 0 0 0 0 0 0 0 0 0 0 0 0 0 0 0 0 0 0 0 0 0 0 0 0 0 0 0 0 0 0 -3 -3
0 0 0 0 0 0 0 0 0 0 0 0 0 0 0 0 0 0 0 0 0 0 0 0 0 0 0 0 0 0 0 0 0 0 0 0 0 0 0 0 0 0 0 0 0 0 0
0 0 0 0 0 0 0 0 0 0 0 0 0 0 0 0 0 0 0 0 0 0 0 0 0 0 0 0 0 0 0 0 0 0 0 0 0 0 0 0 0 0 0 0 0 0 0
-6 0 0 0 0 0 0 0 0 0 0 0 0 0 0 0 0 0 0 0 0 0 0 0 0 0 0 0 0 0 0 0 0 0 0 0 0 0 0 0 0 0 0 0 0 0 0
-5 -6 0 0 0 0 0 0 0 0 0 0 0 0 0 0 0 0 0 0 0 0 0 0 0 0 0 0 0 0 0 0 0 0 0 0 0 0 0 0 0 0 0 0 0 0 -8
-3 -4 -4 -6 -3 0 0 0 0 0 0 0 0 0 0 0 0 0 0 0 0 0 0 0 -2 0 0 0 0 0 0 0 0 0 0 0 0 0 0 0 0 0 0 0 0 0 0
-4 -4 -6 -3 -1 -2 0 0 0 0 0 0 0 0 0 0 0 0 0 0 0 0 0 -8 -5 -6 0 0 0 0 0 0 0 0 0 0 0 0 0 0 0 0 0 0 0 0 -1
-5 -6 -2 0 -1 0 0 0 0 0 0 0 0 0 0 0 0 0 0 0 0 0 0 -12 -10 -9 0 0 0 0 0 0 0 0 0 0 0 0 0 0 0 0 0 0 0 0 0
-4 -4 0 -1 0 0 0 0 0 0 0 0 0 0 0 0 0 0 0 0 0 0 0 -11 -30 -1 -24 -8 0 0 0 0 0 0 0 0 0 0 0 0 0 0 0 -3 0 -2 -1
-1 0 0 -1 -1 0 -1 0 0 0 0 0 0 0 0 0 0 0 0 0 0 0 -13 -23 0 0 0 -12 -7 0 0 0 0 0 0 0 0 0 -1 -4 0 0 -5 0 0 0 -1
-4 0 0 0 0 0 -1 0 0 0 0 -1 0 0 0 0 0 0 0 0 0 0 0 -7 -12 -6 -19 -3 -12 -12 -4 0 0 0 0 -4 0 0 0 0 -6 0 0 0 -3 -6 -13
-5 -4 0 0 0 0 0 0 0 0 0 0 0 0 -4 -13 0 0 0 0 -5 -2 -6 -10 -27 -4 -5 -4 -9 -8 -29 0 0 -2 0 0 0 0 0 0 -3 -22 -3 0 0 0 -2
-5 -6 0 0 0 0 0 0 0 0 0 0 0 0 0 0 0 0 0 0 -8 -7 -5 -5 -19 -12 -12 -7 -6 -22 -48 -7 -7 -34 0 0 -8 0 0 0 0 0 0 -15 -6 0 0
-4 -4 -1 0 0 0 0 0 -1 0 0 0 0 0 0 0 0 0 -36 -4 -32 -30 -15 -46 -8 -30 -10 -91 -49 -98 -100 -73 -51 -5 -45 -25 0 0 0 0 0 0 -7 -11 -16 -23 -2
-5 -4 -3 0 0 0 0 0 0 0 0 0 0 0 0 0 0 -3 -3 -9 -22 -23 -3 -67 -30 -61 -52 -143 -126 -68 -58 -31 -13 -22 -31 -8 -18 -2 0 -4 -5 -1 -5 -13 -3 -21 -29
-2 -4 -4 -2 -2 0 0 0 0 0 0 0 0 0 0 0 0 -1 0 0 0 0 0 0 -62 -128 -39 -129 -66 -52 -29 -15 -18 -57 -63 -247 -13 -2 -5 -1 -9 -6 -21 -16 -114 -11 -14
-6 -5 -3 -3 -1 0 0 0 0 0 0 0 0 0 0 0 0 0 0 0 0 0 0 0 0 0 0 0 -52 -41 -32 -44 -45 -47 -57 0 -2 0 -58 -3 -7 -14 -23 -38 -124 0 -84
0 -4 -4 -6 -3 -3 0 0 0 0 0 -1 0 0 0 0 0 0 0 0 0 0 0 -8 0 0 0 -100 -57 -36 -27 -9 -40 -12 -43 0 -10 -9 -13 -17 0 -13 -55 -82 0 0 -121
-1 0 -3 -7 -6 -5 -3 0 0 0 0 -1 0 0 0 0 0 0 0 0 0 0 0 0 0 0 -27 -64 -41 -36 -14 -10 -9 -16 -67 -59 -15 -80 0 -5 -2 -37 -47 -44 -9 -117 -60
0 -1 -2 -4 -5 -7 -2 0 0 0 0 0 0 0 0 0 0 0 0 0 0 0 0 0 0 -86 -38 -81 -28 -17 -18 -6 -3 -11 -48 -7 -65 -98 -18 -124 -198 -66 -118 -96 -49 -85 -54
Wind_Speed
33 33 33 33 33 34 35 35 35 36 35 35 36 36 36 36 36 35 35 34 34 33 30 27 25 23 22 21 25 1 7 25 27 32 33 30 28 25 22 21 17 5 10 8 10 18 13
33 33 33 33 33 34 35 36 36 36 36 36 36 37 37 37 36 36 36 35 35 32 29 26 25 23 22 23 14 12 17 27 33 35 33 31 29 26 21 18 21 7 9 18 14 12 15
33 33 34 34 34 35 36 36 36 37 37 37 37 37 37 38 37 37 37 36 35 31 28 25 23 21 27 27 18 12 19 29 35 35 33 32 30 24 25 25 8 7 12 17 18 16 5
33 33 34 34 35 36 36 37 37 37 38 38 38 38 38 38 38 38 37 37 35 31 27 23 22 21 24 27 23 27 24 26 34 36 35 31 27 27 28 19 22 19 22 25 16 12 11
33 34 34 35 35 36 37 38 38 38 39 39 39 39 39 39 39 39 38 37 34 29 26 22 21 20 29 10 11 29 27 24 32 34 34 27 30 29 29 29 26 29 24 17 10 11 10
34 34 35 36 37 37 38 38 39 39 39 39 40 40 40 39 39 39 39 36 28 24 23 22 26 23 28 22 12 9 22 24 26 29 28 25 30 28 30 23 28 24 24 16 9 9 12
35 35 36 37 37 38 38 39 40 40 40 40 40 40 40 40 39 38 35 27 23 22 21 26 20 23 18 18 7 7 13 19 22 29 26 24 29 26 27 28 31 27 26 3 13 8 13
35 36 37 38 38 38 39 40 40 40 40 40 40 41 41 41 39 38 30 25 30 30 35 35 38 35 30 11 9 8 12 15 19 25 25 21 27 28 27 27 31 29 5 1 1 3 4
37 37 37 38 38 39 39 41 41 41 41 41 41 41 41 41 40 28 23 31 33 32 36 41 37 33 26 16 15 12 12 14 15 22 25 23 25 31 27 24 26 28 19 3 2 2 11
36 37 38 38 39 39 39 41 41 41 41 41 41 40 40 41 29 27 25 24 23 29 34 37 31 34 23 22 23 16 15 13 12 20 18 31 24 28 29 25 19 24 13 30 12 6 9
36 37 38 38 39 39 40 41 41 42 42 42 41 40 39 32 32 25 28 28 26 26 28 18 20 15 21 22 20 17 16 18 14 14 12 21 34 25 24 28 23 14 18 21 13 8 10
36 37 37 38 39 40 41 41 42 42 42 42 42 41 38 30 18 21 32 31 26 23 27 16 10 18 21 23 27 20 19 26 32 20 24 37 27 19 15 25 12 17 18 12 2 3 18
37 36 37 38 39 40 40 41 42 42 42 43 43 42 37 29 21 22 26 23 24 28 27 24 13 19 23 23 26 23 21 23 23 20 17 17 30 11 12 7 11 9 4 2 2 6 7
37 37 37 38 39 39 39 40 42 42 42 43 44 44 32 16 19 30 19 23 31 29 37 28 12 18 27 24 28 25 24 26 25 24 20 18 18 10 10 11 6 7 5 3 0 3 1
37 37 37 38 38 38 39 40 41 42 42 43 43 32 31 21 13 19 19 29 29 35 33 33 29 24 27 28 28 26 29 28 25 25 22 16 20 11 12 18 10 8 10 13 24 25 19
36 36 36 37 38 38 38 39 40 41 42 42 35 32 32 20 5 12 22 35 36 41 40 33 33 28 28 28 31 27 31 33 34 29 45 16 20 12 16 15 21 17 8 17 20 19 22
35 35 36 36 37 37 38 38 39 40 41 38 27 26 23 3 7 18 27 32 38 44 39 33 32 28 28 28 32 29 30 32 37 33 41 41 17 14 13 19 16 14 20 17 20 16 15
35 35 35 36 36 37 37 37 38 38 40 29 26 24 10 5 20 26 32 40 40 41 40 29 34 33 31 33 36 38 30 29 27 40 34 41 26 29 20 12 12 13 15 16 22 22 24
34 34 35 35 36 35 36 36 36 36 33 30 26 30 25 18 33 32 35 42 42 42 39 34 32 38 33 34 36 42 38 18 22 34 38 34 30 27 24 14 13 27 18 12 19 24 25
33 34 34 35 36 36 35 36 36 35 32 27 24 26 24 25 33 38 36 40 39 40 45 36 29 36 40 38 36 37 29 40 20 22 37 34 32 31 31 25 10 14 21 24 30 25 25
32 34 35 35 35 35 35 35 35 35 34 23 22 23 24 24 28 34 40 38 36 38 36 37 32 36 33 31 32 34 38 22 35 30 23 34 30 32 34 37 36 34 14 22 30 38 35
31 33 34 34 35 35 34 34 34 34 34 18 26 26 29 34 32 31 31 40 37 33 32 33 34 35 33 34 30 26 25 34 40 18 21 23 28 28 34 33 33 35 38 16 16 25 34
32 32 32 34 34 34 33 33 32 31 28 23 25 27 27 31 32 30 31 30 35 33 25 35 23 29 30 29 24 25 25 24 20 21 26 23 29 31 35 31 35 38 33 38 26 18 18
31 32 33 33 33 33 33 32 31 29 26 26 27 25 25 32 33 31 27 28 32 29 28 24 23 28 25 28 29 29 28 22 19 25 17 24 30 29 35 33 37 33 38 28 30 27 23
33 32 34 33 33 33 32 31 30 29 27 26 27 23 23 28 28 26 26 27 29 28 32 26 24 23 29 28 29 28 28 28 23 21 23 20 19 22 33 32 30 29 26 19 19 29 27
33 31 32 32 32 32 32 31 30 29 27 26 27 21 23 26 21 27 28 29 30 31 35 36 31 27 29 33 32 33 35 26 28 24 19 18 9 45 20 30 37 31 21 21 27 32 22
32 31 32 33 32 32 32 31 29 28 27 27 26 22 23 27 24 26 23 27 26 26 27 20 26 31 32 36 37 37 39 35 41 33 34 38 29 37 30 34 37 32 25 15 27 32 34
30 31 31 32 32 31 31 30 29 28 27 24 26 22 22 26 32 26 26 26 26 24 26 23 25 25 29 35 38 38 36 36 38 35 33 42 33 38 37 36 37 31 13 17 10 9 13
28 29 30 31 31 31 30 30 28 27 26 24 26 23 24 28 28 28 28 26 27 27 27 26 25 20 21 25 27 33 39 37 33 42 33 31 25 28 26 18 25 14 5 3 9 11 15
Wind_Direction
343 343 344 343 340 336 333 334 332 329 324 319 317 316 314 314 311 310 306 302 301 298 294 288 280 275 271 191 201 297 66 221 217 197 185 190 189 199 201 183 210 353 11 333 25 76 31
342 341 339 340 341 337 332 328 328 328 325 320 316 314 313 311 310 310 306 302 300 297 291 288 286 279 266 196 181 93 130 157 179 180 179 191 189 200 220 226 204 337 30 90 63 17 48
339 339 338 336 335 334 332 327 324 323 324 322 316 313 311 309 308 307 305 301 299 294 293 288 288 281 246 196 257 104 136 159 178 175 179 190 202 221 204 197 316 292 71 85 92 73 341
338 336 335 335 333 331 328 325 324 320 319 320 319 313 309 308 306 304 302 300 297 291 289 285 285 279 262 228 213 195 157 155 179 194 196 198 215 216 209 242 222 126 129 148 97 68 263
335 334 333 330 330 329 327 324 320 320 318 317 316 314 309 306 304 302 300 294 294 291 284 281 284 282 253 283 257 221 167 152 168 178 195 229 213 207 201 188 163 172 156 122 76 81 40
333 331 329 327 326 325 324 322 320 318 316 315 313 312 308 304 303 301 299 292 301 295 286 276 268 275 258 266 264 160 154 152 157 162 176 186 182 183 194 152 166 158 171 137 112 120 100
329 328 326 325 324 322 322 321 319 316 314 313 311 310 308 302 299 302 304 304 300 294 283 266 277 266 288 258 236 226 150 150 153 166 164 165 169 173 170 168 191 180 189 118 167 116 114
327 325 324 323 321 320 319 318 317 316 313 311 310 308 307 301 294 295 299 288 280 298 279 268 257 254 259 247 244 210 169 157 159 163 163 156 175 177 176 176 192 195 309 123 220 53 34
324 322 324 322 318 319 318 317 314 314 312 310 308 307 306 301 293 308 305 279 288 290 277 266 256 252 252 250 248 213 199 171 169 166 167 168 171 187 184 173 183 199 173 315 164 353 312
325 323 321 320 318 317 318 316 314 311 310 309 307 305 306 305 306 307 299 294 306 293 278 265 253 246 240 247 248 227 212 214 230 172 168 186 173 183 189 183 167 185 170 214 174 132 169
328 324 320 317 318 318 317 316 313 309 306 305 305 303 303 311 296 301 292 298 303 288 271 281 240 243 234 237 241 226 213 223 238 241 231 178 196 183 185 193 185 178 173 182 175 180 187
326 324 322 318 317 317 315 314 312 309 305 302 300 299 303 302 313 298 273 283 284 271 258 283 241 239 229 235 239 228 223 233 240 252 250 234 251 236 180 190 171 166 284 175 213 212 209
324 324 322 319 317 316 314 314 311 308 304 300 296 291 291 295 296 303 291 287 268 257 254 269 244 242 237 238 233 225 216 219 228 243 237 245 191 251 256 203 172 169 276 290 283 199 201
325 322 322 320 318 317 316 316 311 307 304 299 294 285 293 297 287 269 291 272 258 258 245 252 269 249 244 236 235 226 224 228 231 245 248 243 245 222 236 188 224 229 217 260 124 353 266
324 322 320 318 318 319 317 316 312 308 305 301 295 295 284 292 290 276 273 260 257 249 244 251 266 259 245 239 238 229 231 233 230 235 244 232 254 223 219 252 232 249 238 201 284 296 310
323 322 321 317 316 316 316 316 314 310 306 302 298 292 280 281 249 273 263 258 254 238 236 269 261 258 244 238 235 231 234 237 238 238 229 246 258 227 246 253 257 260 265 276 278 299 302
324 322 321 319 316 316 315 314 312 311 309 298 299 290 294 208 274 263 258 259 248 235 254 263 254 261 253 243 239 239 243 241 236 237 235 232 248 248 227 246 240 248 268 273 278 284 304
323 320 319 318 317 316 316 315 313 314 315 309 291 279 278 272 267 263 257 242 238 239 240 266 251 256 266 255 245 242 242 240 235 233 236 237 261 261 225 235 215 248 255 273 273 284 288
322 319 317 316 317 318 317 316 315 315 321 305 285 270 274 269 258 258 255 236 239 239 246 257 256 249 261 262 257 242 245 236 239 236 236 238 250 256 257 238 227 253 260 251 274 279 283
320 319 316 314 314 315 316 315 315 312 313 306 284 272 271 262 261 254 252 244 249 244 238 250 264 252 248 259 255 249 245 238 210 235 237 240 245 251 255 257 231 241 258 263 270 275 281
321 319 314 312 312 313 313 314 313 311 306 302 280 272 289 265 263 258 250 251 254 249 248 254 260 258 254 255 253 250 238 241 240 243 235 240 250 253 255 258 259 259 250 264 268 269 276
319 316 314 312 312 312 313 312 313 313 307 297 285 278 279 262 267 268 254 245 253 254 252 253 251 257 250 250 257 258 261 248 237 231 234 238 248 255 260 263 263 267 266 249 258 271 270
313 313 313 311 311 311 312 312 311 315 315 295 298 291 280 259 262 265 256 258 251 250 256 241 250 254 252 260 267 258 262 263 253 232 236 242 248 255 261 263 267 266 268 263 277 264 271
312 310 308 307 308 307 307 308 308 309 312 295 287 294 274 258 256 264 265 263 254 261 250 261 261 253 267 267 268 252 255 258 251 241 266 256 253 252 256 262 262 267 258 273 274 274 265
307 307 304 302 303 304 301 301 302 302 303 295 282 291 275 261 265 272 265 265 264 268 257 266 273 269 264 263 259 250 248 247 244 245 251 290 260 254 252 256 270 272 277 287 297 279 286
305 304 303 301 301 298 296 295 296 296 298 293 282 291 276 262 274 277 269 264 264 260 258 260 267 273 263 255 254 250 246 252 255 247 239 253 217 233 249 259 263 272 285 283 300 278 303
304 302 298 295 294 292 291 289 290 292 295 289 273 291 278 267 269 281 276 264 269 266 261 273 262 263 256 250 248 249 247 250 243 252 252 254 265 266 279 276 275 279 293 296 275 268 283
302 300 295 292 289 287 285 286 287 290 294 291 275 280 283 271 267 277 276 268 266 264 260 283 266 263 256 249 246 246 251 252 256 260 262 266 267 271 275 273 275 279 288 267 299 296 313
302 298 294 288 284 281 280 282 285 287 289 291 276 285 283 269 267 276 273 269 263 263 264 269 269 277 271 256 254 252 250 255 264 258 268 269 268 265 279 284 296 308 272 316 304 314 311